User: anonymous   Login
Location: Little Chesterford
(52.0500°N, 0.1833°E)
Time: 10:19:32
(UTC+00:00)
Language:

Cosmos 1943 Rocket - Orbit

View from above orbital plane
View from above orbital plane
View from above satellite
View from above satellite

Ground track
Ground track

The orbit data is extracted from the following two-line orbital elements,

1 19120U 88039B   24056.82687303 -.00000048  00000-0 -96149-7 0  9995
2 19120  71.0142 199.0661 0020468  34.5652 325.6799 14.19381620852963
Epoch (UTC): 25 February 2024 19:50:41
Eccentricity: 0.0020468
inclination: 71.0142°
perigee height: 812 km
apogee height: 842 km
right ascension of ascending node: 199.0661°
argument of perigee: 34.5652°
revolutions per day: 14.19381620
mean anomaly at epoch: 325.6799°
orbit number at epoch: 85296

The dashed part of the orbit path shows where the satellite is in the earth's shadow,  

DLR